Year,Month,Day,Hour,Minute,Value (Times are PST for temperature in C)
2013,08,30,08,17,17.90
2013,08,30,08,18,17.90
2013,08,30,08,19,17.90
2013,08,30,08,20,17.90
2013,08,30,08,21,17.90
2013,08,30,08,22,18.00
2013,08,30,08,23,18.10
2013,08,30,08,24,18.20
2013,08,30,08,25,18.20
2013,08,30,08,26,18.20
2013,08,30,08,27,18.30
2013,08,30,08,28,18.40
2013,08,30,08,29,18.40
2013,08,30,08,30,18.50
2013,08,30,08,31,18.50
2013,08,30,08,32,18.60
2013,08,30,08,33,18.50
2013,08,30,08,34,18.50
2013,08,30,08,35,18.50
2013,08,30,08,36,18.50
2013,08,30,08,37,18.50
2013,08,30,08,38,18.50
2013,08,30,08,39,18.50
2013,08,30,08,40,18.50
2013,08,30,08,41,18.40
2013,08,30,08,42,18.40
2013,08,30,08,43,18.30
2013,08,30,08,44,18.20
2013,08,30,08,45,18.10
2013,08,30,08,46,17.80
2013,08,30,08,47,17.60
2013,08,30,08,48,17.30
2013,08,30,08,49,17.00
2013,08,30,08,50,16.80
2013,08,30,08,51,16.60
2013,08,30,08,52,16.50
2013,08,30,08,53,16.40
2013,08,30,08,54,16.40
2013,08,30,08,55,16.40
2013,08,30,08,56,16.40
2013,08,30,08,57,16.40
2013,08,30,08,58,16.50
2013,08,30,08,59,16.60
2013,08,30,09,00,16.70
2013,08,30,09,01,16.80
2013,08,30,09,02,16.90
2013,08,30,09,03,17.00
2013,08,30,09,04,17.10
2013,08,30,09,05,17.20
2013,08,30,09,06,17.20
2013,08,30,09,07,17.30
2013,08,30,09,08,17.30
2013,08,30,09,09,17.30
2013,08,30,09,10,17.40
2013,08,30,09,11,17.40
2013,08,30,09,12,17.40
2013,08,30,09,13,17.40
2013,08,30,09,14,17.50
2013,08,30,09,15,17.50
2013,08,30,09,16,17.50
2013,08,30,09,17,17.50
2013,08,30,09,18,17.40
2013,08,30,09,19,17.40
2013,08,30,09,20,17.50
2013,08,30,09,21,17.50
2013,08,30,09,22,17.60
2013,08,30,09,23,17.70
2013,08,30,09,24,17.70
2013,08,30,09,25,17.80
2013,08,30,09,26,17.90
2013,08,30,09,27,17.90
2013,08,30,09,28,17.90
2013,08,30,09,29,17.80
2013,08,30,09,30,17.80
2013,08,30,09,31,17.70
2013,08,30,09,32,17.60
2013,08,30,09,33,17.50
2013,08,30,09,34,17.50
2013,08,30,09,35,17.30
2013,08,30,09,36,17.00
2013,08,30,09,37,16.70
2013,08,30,09,38,16.70
2013,08,30,09,39,16.70
2013,08,30,09,40,16.70
2013,08,30,09,41,16.70
2013,08,30,09,42,16.70
2013,08,30,09,43,16.80
2013,08,30,09,44,16.70
2013,08,30,09,45,16.70
2013,08,30,09,46,16.70
2013,08,30,09,47,16.70
2013,08,30,09,48,16.70
2013,08,30,09,49,16.70
2013,08,30,09,50,16.70
2013,08,30,09,51,16.70
2013,08,30,09,52,16.70
2013,08,30,09,53,16.70
2013,08,30,09,54,16.50
2013,08,30,09,55,16.40
2013,08,30,09,56,16.40
2013,08,30,09,57,16.30
2013,08,30,09,58,16.20
2013,08,30,09,59,16.10
2013,08,30,10,00,16.10
2013,08,30,10,01,16.10
2013,08,30,10,02,16.10
2013,08,30,10,03,16.10
2013,08,30,10,04,16.10
2013,08,30,10,05,16.10
2013,08,30,10,06,16.10
2013,08,30,10,07,16.10
2013,08,30,10,08,16.10
2013,08,30,10,09,16.10
2013,08,30,10,10,16.10
2013,08,30,10,11,16.10
2013,08,30,10,12,16.20
2013,08,30,10,13,16.20
2013,08,30,10,14,16.20
2013,08,30,10,15,16.20
2013,08,30,10,16,16.20
2013,08,30,10,17,16.10
2013,08,30,10,18,16.10
2013,08,30,10,19,16.10
2013,08,30,10,20,16.10
2013,08,30,10,21,16.10
2013,08,30,10,22,16.00
2013,08,30,10,23,15.90
2013,08,30,10,24,16.00
2013,08,30,10,25,16.10
2013,08,30,10,26,16.10
2013,08,30,10,27,16.20
2013,08,30,10,28,16.20
2013,08,30,10,29,16.20
2013,08,30,10,30,16.20
2013,08,30,10,31,16.10
2013,08,30,10,32,16.10
2013,08,30,10,33,16.10
2013,08,30,10,34,16.10
2013,08,30,10,35,16.10
2013,08,30,10,36,16.10
2013,08,30,10,37,16.00
2013,08,30,10,38,16.10
2013,08,30,10,39,16.00
2013,08,30,10,40,15.90
2013,08,30,10,41,16.00
2013,08,30,10,42,16.10
2013,08,30,10,43,16.10
2013,08,30,10,44,16.10
2013,08,30,10,45,16.10
2013,08,30,10,46,16.10
2013,08,30,10,47,16.20
2013,08,30,10,48,16.30
2013,08,30,10,49,16.20
2013,08,30,10,50,16.20
2013,08,30,10,51,16.10
2013,08,30,10,52,16.10
2013,08,30,10,53,16.10
2013,08,30,10,54,16.10
2013,08,30,10,55,16.20
2013,08,30,10,56,16.30
2013,08,30,10,57,16.40
2013,08,30,10,58,16.40
2013,08,30,10,59,16.50
2013,08,30,11,00,16.60
2013,08,30,11,01,16.70
2013,08,30,11,02,16.70
2013,08,30,11,03,16.60
2013,08,30,11,04,16.50
2013,08,30,11,05,16.40
2013,08,30,11,06,16.40
2013,08,30,11,07,16.40
2013,08,30,11,08,16.40
2013,08,30,11,09,16.40
2013,08,30,11,10,16.40
2013,08,30,11,11,16.40
2013,08,30,11,12,16.40
2013,08,30,11,13,16.50
2013,08,30,11,14,16.40
2013,08,30,11,15,16.40
2013,08,30,11,16,16.40
2013,08,30,11,17,16.50
2013,08,30,11,18,16.50
2013,08,30,11,19,16.40
2013,08,30,11,20,16.60
2013,08,30,11,21,16.60
2013,08,30,11,22,16.70
2013,08,30,11,23,16.70
2013,08,30,11,24,16.80
2013,08,30,11,25,16.80
2013,08,30,11,26,16.80
2013,08,30,11,27,16.70
2013,08,30,11,28,16.70
2013,08,30,11,29,16.70
2013,08,30,11,30,16.60
2013,08,30,11,31,16.50
2013,08,30,11,32,16.40
2013,08,30,11,33,16.40
2013,08,30,11,34,16.60
2013,08,30,11,35,16.60
2013,08,30,11,36,16.60
2013,08,30,11,37,16.70
2013,08,30,11,38,16.70
2013,08,30,11,39,16.60
2013,08,30,11,40,16.60
2013,08,30,11,41,16.70
2013,08,30,11,42,16.80
2013,08,30,11,43,16.80
2013,08,30,11,44,16.80
2013,08,30,11,45,16.80
2013,08,30,11,46,16.90
2013,08,30,11,47,17.00
2013,08,30,11,48,17.10
2013,08,30,11,49,17.10
2013,08,30,11,50,17.10
2013,08,30,11,51,17.00
2013,08,30,11,52,17.00
2013,08,30,11,53,17.00
2013,08,30,11,54,17.00
2013,08,30,11,55,17.00
2013,08,30,11,56,17.10
2013,08,30,11,57,17.20
2013,08,30,11,58,17.30
2013,08,30,11,59,17.40
2013,08,30,12,00,17.50
2013,08,30,12,01,17.50
2013,08,30,12,02,17.50
2013,08,30,12,03,17.40
2013,08,30,12,04,17.30
2013,08,30,12,05,17.30
2013,08,30,12,06,17.30
2013,08,30,12,07,17.30
2013,08,30,12,08,17.20
2013,08,30,12,09,17.20
2013,08,30,12,10,17.20
2013,08,30,12,11,17.30
2013,08,30,12,12,17.50
2013,08,30,12,13,17.70
2013,08,30,12,14,17.80
2013,08,30,12,15,17.80
2013,08,30,12,16,17.70
2013,08,30,12,17,17.60
2013,08,30,12,18,17.60
2013,08,30,12,19,17.60
2013,08,30,12,20,17.60
2013,08,30,12,21,17.70
2013,08,30,12,22,17.70
2013,08,30,12,23,17.80
2013,08,30,12,24,17.90
2013,08,30,12,25,17.90
2013,08,30,12,26,18.00
2013,08,30,12,27,18.10
2013,08,30,12,28,18.10
2013,08,30,12,29,18.20
2013,08,30,12,30,18.10
2013,08,30,12,31,18.10
2013,08,30,12,32,18.20
2013,08,30,12,33,18.10
2013,08,30,12,34,18.20
2013,08,30,12,35,18.20
2013,08,30,12,36,18.20
2013,08,30,12,37,18.40
2013,08,30,12,38,18.50
2013,08,30,12,39,18.60
2013,08,30,12,40,18.60
2013,08,30,12,41,18.60
2013,08,30,12,42,18.60
2013,08,30,12,43,18.60
2013,08,30,12,44,18.50
2013,08,30,12,45,18.50
2013,08,30,12,46,18.50
2013,08,30,12,47,18.50
2013,08,30,12,48,18.40
2013,08,30,12,49,18.30
2013,08,30,12,50,18.30
2013,08,30,12,51,18.30
2013,08,30,12,52,18.30
2013,08,30,12,53,18.40
2013,08,30,12,54,18.40
2013,08,30,12,55,18.50
2013,08,30,12,56,18.50
2013,08,30,12,57,18.50
2013,08,30,12,58,18.50
2013,08,30,12,59,18.40
2013,08,30,13,00,18.30
2013,08,30,13,01,18.40
2013,08,30,13,02,18.50
2013,08,30,13,03,18.60
2013,08,30,13,04,18.70
2013,08,30,13,05,18.80
2013,08,30,13,06,18.90
2013,08,30,13,07,18.90
2013,08,30,13,08,18.90
2013,08,30,13,09,18.90
2013,08,30,13,10,18.90
2013,08,30,13,11,19.00
2013,08,30,13,12,19.10
2013,08,30,13,13,19.20
2013,08,30,13,14,19.20
2013,08,30,13,15,19.10
2013,08,30,13,16,19.10
2013,08,30,13,17,19.00
2013,08,30,13,18,18.90
2013,08,30,13,19,18.90
2013,08,30,13,20,19.00
2013,08,30,13,21,19.10
2013,08,30,13,22,19.00
2013,08,30,13,23,19.10
2013,08,30,13,24,19.10
2013,08,30,13,25,19.20
2013,08,30,13,26,19.30
2013,08,30,13,27,19.40
2013,08,30,13,28,19.50
2013,08,30,13,29,19.60
2013,08,30,13,30,19.60
2013,08,30,13,31,19.60
2013,08,30,13,32,19.60
2013,08,30,13,33,19.50
2013,08,30,13,34,19.40
2013,08,30,13,35,19.30
2013,08,30,13,36,19.20
2013,08,30,13,37,19.20
2013,08,30,13,38,19.10
2013,08,30,13,39,19.10
2013,08,30,13,40,19.10
2013,08,30,13,41,19.00
2013,08,30,13,42,18.90
2013,08,30,13,43,19.00
2013,08,30,13,44,19.00
2013,08,30,13,45,19.00
2013,08,30,13,46,18.90
2013,08,30,13,47,18.90
2013,08,30,13,48,18.90
2013,08,30,13,49,18.90
2013,08,30,13,50,18.90
2013,08,30,13,51,19.00
2013,08,30,13,52,19.10
2013,08,30,13,53,19.10
2013,08,30,13,54,19.30
2013,08,30,13,55,19.30
2013,08,30,13,56,19.20
2013,08,30,13,57,19.10
2013,08,30,13,58,19.00
2013,08,30,13,59,19.00
2013,08,30,14,00,19.10
2013,08,30,14,01,19.10
2013,08,30,14,02,19.10
2013,08,30,14,03,19.30
2013,08,30,14,04,19.40
2013,08,30,14,05,19.50
2013,08,30,14,06,19.60
2013,08,30,14,07,19.60
2013,08,30,14,08,19.40
2013,08,30,14,09,19.50
2013,08,30,14,10,19.40
2013,08,30,14,11,19.40
2013,08,30,14,12,19.40
2013,08,30,14,13,19.30
2013,08,30,14,14,19.40
2013,08,30,14,15,19.50
2013,08,30,14,16,19.50
2013,08,30,14,17,19.50
2013,08,30,14,18,19.60
2013,08,30,14,19,19.50
2013,08,30,14,20,19.40
2013,08,30,14,21,19.40
2013,08,30,14,22,19.40
2013,08,30,14,23,19.40
2013,08,30,14,24,19.30
2013,08,30,14,25,19.30
2013,08,30,14,26,19.40
2013,08,30,14,27,19.50
2013,08,30,14,28,19.60
2013,08,30,14,29,19.70
2013,08,30,14,30,19.90
2013,08,30,14,31,19.90
2013,08,30,14,32,19.90
2013,08,30,14,33,19.90
2013,08,30,14,34,19.90
2013,08,30,14,35,19.90
2013,08,30,14,36,19.90
2013,08,30,14,37,19.90
2013,08,30,14,38,19.90
2013,08,30,14,39,20.00
2013,08,30,14,40,20.10
2013,08,30,14,41,20.10
2013,08,30,14,42,20.20
2013,08,30,14,43,20.30
2013,08,30,14,44,20.50
2013,08,30,14,45,20.60
2013,08,30,14,46,20.60
2013,08,30,14,47,20.60
2013,08,30,14,48,20.60
2013,08,30,14,49,20.70
2013,08,30,14,50,20.80
2013,08,30,14,51,20.90
2013,08,30,14,52,20.80
2013,08,30,14,53,20.80
2013,08,30,14,54,20.80
2013,08,30,14,55,20.90
2013,08,30,14,56,20.70
2013,08,30,14,57,20.50
2013,08,30,14,58,20.40
2013,08,30,14,59,20.40
2013,08,30,15,00,20.30
2013,08,30,15,01,20.40
2013,08,30,15,02,20.20
2013,08,30,15,03,20.20
2013,08,30,15,04,20.20
2013,08,30,15,05,20.20
2013,08,30,15,06,20.20
2013,08,30,15,07,20.20
2013,08,30,15,08,20.30
2013,08,30,15,09,20.40
2013,08,30,15,10,20.50
2013,08,30,15,11,20.50
2013,08,30,15,12,20.50
2013,08,30,15,13,20.40
2013,08,30,15,14,20.40
2013,08,30,15,15,20.30
2013,08,30,15,16,20.30
2013,08,30,15,17,20.30
2013,08,30,15,18,20.20
2013,08,30,15,19,20.20
2013,08,30,15,20,20.20
2013,08,30,15,21,20.20
2013,08,30,15,22,20.20
2013,08,30,15,23,20.20
2013,08,30,15,24,20.40
2013,08,30,15,25,20.50
2013,08,30,15,26,20.50
2013,08,30,15,27,20.50
2013,08,30,15,28,20.60
2013,08,30,15,29,20.70
2013,08,30,15,30,20.60
2013,08,30,15,31,20.60
2013,08,30,15,32,20.60
2013,08,30,15,33,20.60
2013,08,30,15,34,20.50
2013,08,30,15,35,20.40
2013,08,30,15,36,20.30
2013,08,30,15,37,20.30
2013,08,30,15,38,20.30
2013,08,30,15,39,20.40
2013,08,30,15,40,20.50
2013,08,30,15,41,20.60
2013,08,30,15,42,20.70
2013,08,30,15,43,20.80
2013,08,30,15,44,20.80
2013,08,30,15,45,20.90
2013,08,30,15,46,21.00
2013,08,30,15,47,21.10
2013,08,30,15,48,21.10
2013,08,30,15,49,21.20
2013,08,30,15,50,21.20
2013,08,30,15,51,21.20
2013,08,30,15,52,21.30
2013,08,30,15,53,21.30
2013,08,30,15,54,21.30
2013,08,30,15,55,21.30
2013,08,30,15,56,21.20
2013,08,30,15,57,21.10
2013,08,30,15,58,21.20
2013,08,30,15,59,21.20
2013,08,30,16,00,21.20
2013,08,30,16,01,21.30
2013,08,30,16,02,21.30
2013,08,30,16,03,21.30
2013,08,30,16,04,21.30
2013,08,30,16,05,21.20
2013,08,30,16,06,21.20
2013,08,30,16,07,21.20
2013,08,30,16,08,21.20
2013,08,30,16,09,21.10
2013,08,30,16,10,21.00
2013,08,30,16,11,20.90
2013,08,30,16,12,20.80
2013,08,30,16,13,20.70
2013,08,30,16,14,20.70
2013,08,30,16,15,20.50
2013,08,30,16,16,20.30
2013,08,30,16,17,20.10
2013,08,30,16,18,19.90
2013,08,30,16,19,19.90
2013,08,30,16,20,19.80
2013,08,30,16,21,19.90
2013,08,30,16,22,19.90
2013,08,30,16,23,19.90
2013,08,30,16,24,19.90
2013,08,30,16,25,19.90
2013,08,30,16,26,19.90
2013,08,30,16,27,19.90
2013,08,30,16,28,19.80
2013,08,30,16,29,19.80
2013,08,30,16,30,19.80
2013,08,30,16,31,19.80
2013,08,30,16,32,19.80
2013,08,30,16,33,19.90
2013,08,30,16,34,19.90
2013,08,30,16,35,19.90
2013,08,30,16,36,19.90
2013,08,30,16,37,19.90
2013,08,30,16,38,19.90
2013,08,30,16,39,19.90
2013,08,30,16,40,19.90
2013,08,30,16,41,19.90
2013,08,30,16,42,19.90
2013,08,30,16,43,19.90
2013,08,30,16,44,20.00
2013,08,30,16,45,20.10
2013,08,30,16,46,20.20
2013,08,30,16,47,20.30
2013,08,30,16,48,20.40
2013,08,30,16,49,20.40
2013,08,30,16,50,20.40
2013,08,30,16,51,20.40
2013,08,30,16,52,20.40
2013,08,30,16,53,20.50
2013,08,30,16,54,20.60
2013,08,30,16,55,20.70
2013,08,30,16,56,20.80
2013,08,30,16,57,20.80
2013,08,30,16,58,20.90
2013,08,30,16,59,20.90
2013,08,30,17,00,20.90
2013,08,30,17,01,20.80
2013,08,30,17,02,20.80
2013,08,30,17,03,20.50
2013,08,30,17,04,20.30
2013,08,30,17,05,20.20
2013,08,30,17,06,20.10
2013,08,30,17,07,20.00
2013,08,30,17,08,19.90
2013,08,30,17,09,19.90
2013,08,30,17,10,19.90
2013,08,30,17,11,19.80
2013,08,30,17,12,19.80
2013,08,30,17,13,19.90
2013,08,30,17,14,19.90
2013,08,30,17,15,19.90
2013,08,30,17,16,20.00
2013,08,30,17,17,20.10
2013,08,30,17,18,20.10
2013,08,30,17,19,20.00
2013,08,30,17,20,19.90
2013,08,30,17,21,19.90
2013,08,30,17,22,19.90
2013,08,30,17,23,19.90
2013,08,30,17,24,19.90
2013,08,30,17,25,19.90
2013,08,30,17,26,19.90
2013,08,30,17,27,19.80
2013,08,30,17,28,19.80
2013,08,30,17,29,19.80
2013,08,30,17,30,19.70
2013,08,30,17,31,19.70
2013,08,30,17,32,19.70
2013,08,30,17,33,19.60
2013,08,30,17,34,19.60
2013,08,30,17,35,19.60
2013,08,30,17,36,19.60
2013,08,30,17,37,19.60
2013,08,30,17,38,19.60
2013,08,30,17,39,19.60
2013,08,30,17,40,19.50
2013,08,30,17,41,19.50
2013,08,30,17,42,19.50
2013,08,30,17,43,19.50
2013,08,30,17,44,19.50
2013,08,30,17,45,19.50
2013,08,30,17,46,19.50
2013,08,30,17,47,19.50
2013,08,30,17,48,19.50
2013,08,30,17,49,19.50
2013,08,30,17,50,19.50
2013,08,30,17,51,19.40
2013,08,30,17,52,19.40
2013,08,30,17,53,19.30
2013,08,30,17,54,19.30
2013,08,30,17,55,19.30
2013,08,30,17,56,19.40
2013,08,30,17,57,19.40
2013,08,30,17,58,19.40
2013,08,30,17,59,19.50
2013,08,30,18,00,19.60
2013,08,30,18,01,19.60
2013,08,30,18,02,19.70
2013,08,30,18,03,19.80
2013,08,30,18,04,19.90
2013,08,30,18,05,20.00
2013,08,30,18,06,20.10
2013,08,30,18,07,20.20
2013,08,30,18,08,20.20
2013,08,30,18,09,20.20
2013,08,30,18,10,20.30
2013,08,30,18,11,20.30
2013,08,30,18,12,20.30
2013,08,30,18,13,20.40
2013,08,30,18,14,20.50
2013,08,30,18,15,20.50
2013,08,30,18,16,20.50
2013,08,30,18,17,20.40
2013,08,30,18,18,20.50
2013,08,30,18,19,20.50
2013,08,30,18,20,20.50
2013,08,30,18,21,20.60
2013,08,30,18,22,20.50
2013,08,30,18,23,20.50
2013,08,30,18,24,20.60
2013,08,30,18,25,20.60
2013,08,30,18,26,20.60
2013,08,30,18,27,20.60
2013,08,30,18,28,20.60
2013,08,30,18,29,20.60
2013,08,30,18,30,20.70
2013,08,30,18,31,20.70
2013,08,30,18,32,20.70
2013,08,30,18,33,20.80
2013,08,30,18,34,20.80
2013,08,30,18,35,20.80
2013,08,30,18,36,20.80
2013,08,30,18,37,20.80
2013,08,30,18,38,20.80
2013,08,30,18,39,20.80
2013,08,30,18,40,20.90
2013,08,30,18,41,20.90
2013,08,30,18,42,20.90
2013,08,30,18,43,20.90
2013,08,30,18,44,20.90
2013,08,30,18,45,20.90
2013,08,30,18,46,20.90
2013,08,30,18,47,20.90
2013,08,30,18,48,20.90
2013,08,30,18,49,20.90
2013,08,30,18,50,20.90
